TimeMDT,TemperatureF,Dew PointF,Humidity,Sea Level PressureIn,VisibilityMPH,Wind Direction,Wind SpeedMPH,Gust SpeedMPH,PrecipitationIn,Events,Conditions,WindDirDegrees,DateUTC
12:52 AM,34.0,26.1,73,30.26,10.0,WNW,10.4,-,N/A,,Clear,290,2011-10-19 06:52:00
1:52 AM,32.0,26.1,79,30.25,10.0,NW,5.8,-,N/A,,Clear,310,2011-10-19 07:52:00
2:52 AM,30.9,25.0,79,30.24,10.0,NW,4.6,-,N/A,,Clear,310,2011-10-19 08:52:00
3:52 AM,32.0,24.8,75,30.19,10.0,WNW,4.6,-,N/A,,Clear,300,2011-10-19 09:52:00
4:52 AM,30.0,25.0,82,30.24,10.0,NW,4.6,-,N/A,,Clear,320,2011-10-19 10:52:00
5:52 AM,32.0,24.8,75,30.18,10.0,NW,6.9,-,N/A,,Clear,310,2011-10-19 11:52:00
6:52 AM,28.0,24.1,85,30.25,10.0,NE,3.5,-,N/A,,Clear,40,2011-10-19 12:52:00
7:52 AM,33.8,26.6,75,30.17,10.0,Calm,Calm,-,N/A,,Clear,0,2011-10-19 13:52:00
8:52 AM,43.0,28.9,58,30.22,10.0,ENE,4.6,-,N/A,,Clear,70,2011-10-19 14:52:00
9:52 AM,45.0,32.0,60,30.24,10.0,SSE,5.8,-,N/A,,Clear,150,2011-10-19 15:52:00
10:52 AM,48.0,28.0,46,30.21,10.0,SE,8.1,-,N/A,,Clear,130,2011-10-19 16:52:00
11:52 AM,50.0,28.0,43,30.19,10.0,SSE,8.1,-,N/A,,Clear,150,2011-10-19 17:52:00
12:52 PM,53.1,28.0,38,30.16,10.0,SSE,5.8,-,N/A,,Clear,160,2011-10-19 18:52:00
1:52 PM,53.6,28.4,38,30.08,10.0,Variable,6.9,-,N/A,,Clear,0,2011-10-19 19:52:00
2:52 PM,55.0,28.9,37,30.09,10.0,SE,6.9,-,N/A,,Clear,140,2011-10-19 20:52:00
3:52 PM,55.0,28.0,35,30.08,10.0,SE,6.9,-,N/A,,Clear,130,2011-10-19 21:52:00
4:52 PM,53.1,28.0,38,30.08,10.0,SE,11.5,-,N/A,,Clear,130,2011-10-19 22:52:00
5:52 PM,46.9,28.9,50,30.09,10.0,ESE,9.2,-,N/A,,Clear,120,2011-10-19 23:52:00
6:52 PM,41.0,28.9,62,30.11,10.0,East,8.1,-,N/A,,Clear,100,2011-10-20 00:52:00
7:52 PM,39.0,30.0,70,30.10,10.0,ESE,9.2,-,N/A,,Clear,120,2011-10-20 01:52:00
8:52 PM,36.0,28.9,76,30.09,10.0,South,4.6,-,N/A,,Clear,170,2011-10-20 02:52:00
9:52 PM,34.0,28.0,79,30.09,10.0,South,3.5,-,N/A,,Clear,190,2011-10-20 03:52:00
10:52 PM,33.1,27.0,78,30.08,10.0,SSE,5.8,-,N/A,,Clear,160,2011-10-20 04:52:00
11:52 PM,30.9,27.0,85,30.06,10.0,SSE,5.8,-,N/A,,Clear,150,2011-10-20 05:52:00